Flag for Canada Weather past 2 weeks in Edmonton, Alberta, Canada

Now
7 °F

Overcast.


Feels Like: -4 °F
Forecast: 0 / 8 °F
Wind: 6 mph from Northeast

Location: Edmonton Municipal

Current Time: Dec 28, 2014 at 8:13:45 AM

Latest Report: Dec 28, 2014 at 7:00 AM


Visibility: 9 mi

Pressure: 30.43 "Hg

Humidity: 78%

Dew point: 1 °F

Location of EdmontonLocation

Historic Weather in Edmonton — Graph

°F

Edmonton temperature yesterday

Maximum temperature yesterday: 21 °F (at 12:00 AM)
Minimum temperature yesterday: 10 °F (at 11:00 PM)
Average temperature yesterday: 16 °F

Past Weeks' High & Low Weather Summary

 TemperatureHumidityPressure
High36 °F (Dec 22, 1:00 PM)100% (Dec 15, 9:00 AM)30.43 "Hg (Dec 15, 9:00 AM)
Low1 °F (Dec 26, 7:00 AM)59% (Dec 20, 4:00 PM)29.33 "Hg (Dec 21, 2:00 AM)
Average21 °F81%29.98 "Hg
* Reported Dec 13 7:00 AM — Dec 28 7:00 AM, Edmonton, Weather by CustomWeather, © 2014

Note: Actual official high and low records may vary slightly from our data, if they occured in-between our weather recording intervals... More about our weather records

Advertising

Edmonton weather history for previous 24 hours

 ConditionsComfort  
Time TempWeatherWind HumidityBarometerVisibility
7:00 AM
Dec 28
7 °FOvercast.6 mph78%30.43 "Hg9 mi
6:00 AM7 °FOvercast.6 mph78%30.40 "Hg7 mi
5:45 AM7 °FOvercast.6 mph85%30.24 "Hg8 mi
5:00 AM7 °FLight snow. Mostly cloudy.6 mph85%30.38 "Hg4 mi
4:00 AM7 °FOvercast.6 mph85%30.35 "Hg5 mi
3:00 AM7 °FLight snow. Overcast.7 mph85%30.32 "Hg3 mi
2:55 AM7 °FLight snow. Overcast.7 mph85%30.17 "Hg5 mi
2:00 AM9 °FLight snow. Overcast.7 mph78%30.28 "Hg4 mi
1:00 AM9 °FLight snow. Overcast.7 mph85%30.25 "Hg6 mi
12:50 AM9 °FLight snow. Overcast.7 mph85%30.10 "Hg5 mi
12:03 AM10 °FLight snow. Mostly cloudy.7 mph85%30.08 "Hg5 mi
12:00 AM10 °FMostly cloudy.8 mph85%30.22 "Hg6 mi
11:48 PM
Dec 27
10 °FMostly cloudy.7 mph85%30.08 "Hg7 mi
11:00 PM10 °FLow clouds.7 mph85%30.21 "Hg7 mi
10:00 PM12 °FLow clouds.9 mph85%30.18 "Hg7 mi
9:00 PM14 °FLow clouds.6 mph85%30.15 "Hg5 mi
8:00 PM14 °FLow clouds.6 mph85%30.13 "Hg3 mi
7:00 PM14 °FMostly cloudy.8 mph85%30.11 "Hg4 mi
6:00 PM14 °FMostly cloudy.6 mph85%30.10 "Hg2 mi
5:48 PM14 °FMostly cloudy.7 mph85%29.98 "Hg2 mi
5:00 PM16 °FOvercast.7 mph86%30.09 "Hg4 mi
4:00 PM18 °FOvercast.7 mph86%30.07 "Hg3 mi
3:00 PM19 °FOvercast.3 mph79%30.05 "Hg9 mi
2:00 PM19 °FOvercast.2 mph86%30.05 "Hg7 mi
1:00 PM18 °FOvercast.3 mph86%30.05 "Hg6 mi
12:00 PM16 °FLow clouds.5 mph86%30.06 "Hg3 mi
11:54 AM14 °FLow clouds.5 mph92%29.93 "Hg3 mi
11:00 AM14 °FSunny.7 mph92%30.06 "Hg9 mi
10:00 AM14 °FSunny.3 mph92%30.06 "Hg9 mi
9:00 AM18 °FScattered clouds.3 mph86%30.04 "Hg9 mi
8:00 AM21 °FOvercast.5 mph80%30.03 "Hg9 mi
Weather by CustomWeather, © 2014

See weather overviewHow to use our weather pages